Regional Weather Roundup
Issued by NWS Kansas City/Pleasant Hill, MO

Home | Current Version | Previous Version | Text Only | Print | Product List | Glossary On
Versions: 1 2 3 4 5 6 7 8 9 10 11 12 13 14 15 16 17 18 19 20 21 22 23 24 25 26 27 28 29 30 31 32 33 34 35 36 37 38 39 40 41 42 43 44 45 46 47 48 49 50
000
ASUS43 KEAX 111910
RWREAX

WEATHER ROUNDUP FOR EASTERN KANSAS AND NORTHWEST MISSOURI
NATIONAL WEATHER SERVICE KANSAS CITY/PLEASANT HILL MO
100 PM CST THU FEB 11 2016

KSZ040-057-103>105-MOZ028-029-037-043-112000-
...KANSAS CITY METROPOLITAN AREA...

CITY           SKY/WX    TMP DP  RH WIND       PRES   REMARKS
K.C. INTL      PTSUNNY   34  21  59 NE3       30.26F
K.C. DOWNTOWN  MOSUNNY   35  20  54 E5        30.28F WCI  31
LEES SUMMIT    SUNNY     33  20  58 VRB5      30.25F WCI  29
OLATHE - IXD   MOSUNNY   37  21  52 NE7       30.25F WCI  32
OLATHE - OJC   MOSUNNY   35  20  54 NE7       30.25F WCI  29
LAWRENCE       MOSUNNY   35  20  54 CALM      30.26F

$$

MOZ001>008-011>017-020>025-030>033-038>040-044>046-053-054-112000-
...NORTHERN AND CENTRAL MISSOURI...

CITY           SKY/WX    TMP DP  RH WIND       PRES   REMARKS
ST. JOSEPH     SUNNY     31  17  56 CALM      30.29F
MOSBY          CLEAR     32  19  59 E7        30.28F WCI  26
WARRENSBURG    SUNNY     34  19  55 E9        30.26F WCI  26
WHITEMAN AFB   PTSUNNY   35  19  53 NE7       30.24F WCI  29
CLINTON          N/A     37  23  56 E7        30.25F WCI  32
SEDALIA        SUNNY     37  18  46 NE9       30.28F WCI  30
WARSAW         NOT AVBL
CHILLICOTHE      N/A     31  13  47 VRB5      30.31F WCI  26
KIRKSVILLE     SUNNY     22   5  48 E3        30.31F

$$

MOZ041-047>049-056>058-063>065-088>090-097-112000-
...EASTERN AND SOUTHERN MISSOURI...

CITY           SKY/WX    TMP DP  RH WIND       PRES   REMARKS
ST. LOUIS INTL MOSUNNY   28  12  51 CALM      30.30F
SPIRIT OF STL  MOSUNNY   28  12  51 E5        30.29F WCI  23
COLUMBIA       SUNNY     32  18  56 NE5       30.28S WCI  27
JEFFERSON CITY SUNNY     32  18  56 CALM      30.28F
ROLLA          SUNNY     33  21  61 VRB7      30.21F WCI  27
OSAGE BEACH    SUNNY     37  19  48 E8        30.24F WCI  31
SPRINGFIELD    SUNNY     44  16  32 NE3       30.18F
BRANSON        SUNNY     45  18  33 SE7       30.18F
JOPLIN         SUNNY     43  22  43 NE10      30.20F
WEST PLAINS    SUNNY     43  17  35 NE8       30.20F

$$

IAZ060-094-KSZ022-034>040-054-083-096-NEZ052-066-093-112000-
...KANSAS...SOUTHEAST NEBRASKA AND IOWA...

CITY           SKY/WX    TMP DP  RH WIND       PRES   REMARKS
TOPEKA         SUNNY     37  20  50 E6        30.25F WCI  32
MANHATTAN      CLOUDY    32  22  66 VRB3      30.26F
EMPORIA        SUNNY     39  23  52 NE8       30.22F WCI  33
CHANUTE        SUNNY     42  23  46 VRB7      30.21F
WICHITA        MOSUNNY   43  23  45 CALM      30.21F
OMAHA          CLOUDY    21  10  62 S9        30.27F WCI  11
LINCOLN        CLOUDY    25  19  78 S8        30.26F WCI  16
FALLS CITY     MOSUNNY   32  19  58 VRB7      30.26F WCI  26
LAMONI         MOSUNNY   25   3  38 VRB5      30.28F WCI  19
DES MOINES     CLOUDY    19   0  43 SE7       30.30F WCI  10

$$




USA.gov is the U.S. government's official web portal to all federal, state and local government web resources and services.